Terminal Aerodrome Forecast
Issued by NWS Sterling, VA

Current Version | Previous Version | Graphics & Text | Print | Product List | Glossary On
Versions: 1 2 3 4 5 6 7 8 9 10 11 12 13 14 15 16 17 18 19 20 21 22 23 24 25 26 27 28
000
FTUS41 KLWX 022104 AAA
TAFDCA
TAF AMD
KDCA 022104Z 0221/0318 34015KT P6SM FEW250
     FM022300 VRB04KT P6SM BKN150
     FM031600 15007KT P6SM OVC080=

USA.gov is the U.S. government's official web portal to all federal, state and local government web resources and services.